Flag for U.S.A. Weather past 2 weeks in Stamford, Connecticut, U.S.A.

Now
38 °F

Passing clouds.


Feels Like: 31 °F
Forecast: 28 / 38 °F
Wind: 9 mph from Northwest

Location: Westchester County Airport

Current Time: Mar 28, 2015 at 12:39:45 AM

Latest Report: Mar 27, 2015 at 11:56 PM


Visibility: 10 mi

Pressure: 29.79 "Hg

Humidity: 63%

Dew point: 26 °F

Location of StamfordLocation

Historic Weather in Stamford — Graph

°F

Stamford temperature yesterday

Maximum temperature yesterday: 44 °F (at 2:56 PM)
Minimum temperature yesterday: 37 °F (at 7:56 AM)
Average temperature yesterday: 41 °F

Past Weeks' High & Low Weather Summary

 TemperatureHumidityPressure
High54 °F (Mar 26, 7:56 PM)100% (Mar 14, 3:56 PM)30.67 "Hg (Mar 14, 3:56 PM)
Low20 °F (Mar 23, 5:56 AM)18% (Mar 19, 5:56 PM)29.54 "Hg (Mar 17, 10:56 AM)
Average35 °F60%30.06 "Hg
* Reported Mar 12 10:56 PM — Mar 27 10:56 PM, Stamford, Weather by CustomWeather, © 2015

Note: Actual official high and low records may vary slightly from our data, if they occured in-between our weather recording intervals... More about our weather records

Advertising

Stamford weather history for previous 24 hours

 ConditionsComfort  
Time TempWeatherWind HumidityBarometerVisibility
10:56 PM
Fri, Mar 27
39 °FPassing clouds.7 mph62%29.78 "Hg10 mi
9:56 PM40 °FPassing clouds.6 mph58%29.78 "Hg10 mi
8:56 PM41 °FOvercast.3 mph58%29.78 "Hg10 mi
7:56 PM41 °FMore clouds than sun.9 mph58%29.75 "Hg10 mi
6:56 PM42 °FPartly sunny.7 mph57%29.74 "Hg10 mi
5:56 PM44 °FPartly sunny.9 mph58%29.73 "Hg10 mi
4:56 PM44 °FPartly sunny.8 mph63%29.71 "Hg10 mi
3:56 PM44 °FMore clouds than sun.6 mph63%29.71 "Hg10 mi
2:56 PM44 °FMore clouds than sun.14 mph63%29.72 "Hg10 mi
1:56 PM43 °FMore clouds than sun.8 mph68%29.72 "Hg10 mi
12:56 PM43 °FMore clouds than sun.13 mph68%29.72 "Hg10 mi
11:56 AM42 °FPartly sunny.14 mph76%29.73 "Hg10 mi
10:56 AM40 °FMore clouds than sun.10 mph83%29.74 "Hg10 mi
9:56 AM38 °FMostly cloudy.9 mph93%29.75 "Hg7 mi
8:56 AM37 °FMostly cloudy.7 mph93%29.73 "Hg7 mi
7:56 AM37 °FLow clouds.8 mph93%29.74 "Hg7 mi
6:56 AM38 °FLight rain. Low clouds.8 mph90%29.75 "Hg9 mi
5:56 AM38 °FLight rain. Low clouds.9 mph93%29.75 "Hg7 mi
4:56 AM39 °FLight rain. Fog.10 mph89%29.72 "Hg6 mi
3:56 AM40 °FLight rain. Fog.7 mph86%29.71 "Hg6 mi
2:56 AM40 °FLight rain. Passing clouds.9 mph89%29.69 "Hg10 mi
1:56 AM41 °FOvercast.7 mph89%29.68 "Hg10 mi
12:56 AM41 °FLight rain. Mostly cloudy.8 mph89%29.67 "Hg8 mi
Weather by CustomWeather, © 2015

See weather overviewHow to use our weather pages